Ft Riley, KS

9:14 PM CDT on March 28, 2017 (GMT -0500)
Marshall Army Air Field

Weather History for KFRI - March, 2014

Change the Weather History Date:

Wednesday, March 12, 2014

  Actual Average (KMHK) Record (KMHK)
Temperature  
Mean Temperature 44 °F -  
Max Temperature 58 °F 50 °F 78 °F (1997)
Min Temperature 31 °F 26 °F -9 °F (1998)
Degree Days  
Heating Degree Days 20    
Moisture  
Dew Point 29 °F    
Average Humidity 65    
Maximum Humidity 100    
Minimum Humidity 24    
Precipitation  
Precipitation 0.00 in - - ()
Sea Level Pressure  
Sea Level Pressure 30.18 in    
Wind  
Wind Speed 9 mph (WNW)    
Max Wind Speed 18 mph    
Max Gust Speed 29 mph    
Visibility 10 miles    
Events      
Averages and records for this station are not official NWS values.
T = Trace of Precipitation, MM = Missing Value Source: NWS Daily Summary

Daily Weather History Graph

Daily Weather History Graph

Search for Another Location

Airport or City:

Trip Planner

Search our weather history database for the weather conditions in past years. The results will help you decide how hot, cold, wet, or windy it might be!

Date:

Astronomy

Mar. 12, 2014 Rise Set
Actual Time 7:42 AM CDT 7:31 PM CDT
Civil Twilight 7:16 AM CDT 7:57 PM CDT
Nautical Twilight 6:45 AM CDT 8:28 PM CDT
Astronomical Twilight 6:14 AM CDT 9:00 PM CDT
Moon 4:04 PM CDT (3/12) 5:13 AM CDT (3/12)
Length of Visible Light 12h 41m
Length of Day
11h 48m
Waxing Gibbous, 85% of the Moon is Illuminated
Mar 12
Waxing Gibbous
Mar 16
Full
Mar 23
Last Quarter
Mar 30
New
Apr 7
First Quarter

Hourly Weather History & Observations

Time (CDT) Temp. Windchill Dew Point Humidity Pressure Visibility Wind Dir Wind Speed Gust Speed Precip Events Conditions
12:08 AM 35.6 °F 29.2 °F 35.6 °F 100% 30.11 in 10.0 mi NW 8.1 mph - N/A   Overcast
12:13 AM 35.6 °F 29.9 °F 35.6 °F 100% 30.11 in 10.0 mi NW 6.9 mph - N/A   Overcast
12:23 AM 35.6 °F 30.7 °F 35.6 °F 100% 30.11 in 10.0 mi NW 5.8 mph - N/A   Overcast
12:58 AM 37.0 °F 31.0 °F 36.9 °F 99% 30.12 in 10.0 mi NW 8.1 mph - N/A   Overcast
1:58 AM 37.9 °F 30.0 °F 35.8 °F 92% 30.14 in 10.0 mi NNW 12.7 mph 18.4 mph N/A   Overcast
2:58 AM 37.0 °F 29.8 °F 33.3 °F 86% 30.17 in 8.0 mi NNW 10.4 mph - N/A   Mostly Cloudy
3:58 AM 36.0 °F 28.5 °F 33.3 °F 90% 30.17 in 7.0 mi NNW 10.4 mph - N/A   Clear
4:58 AM 34.3 °F 27.0 °F 33.3 °F 96% 30.18 in 10.0 mi NNW 9.2 mph - N/A   Clear
5:58 AM 33.1 °F 26.9 °F 32.2 °F 96% 30.21 in 10.0 mi NW 6.9 mph - N/A   Clear
6:58 AM 32.0 °F 26.4 °F 30.6 °F 94% 30.24 in 10.0 mi NNW 5.8 mph - N/A   Clear
7:58 AM 31.6 °F 24.4 °F 30.0 °F 94% 30.25 in 10.0 mi WNW 8.1 mph - N/A   Clear
8:58 AM 34.2 °F 31.2 °F 30.4 °F 86% 30.26 in 10.0 mi WNW 3.5 mph - N/A   Overcast
9:58 AM 36.0 °F 32.1 °F 32.0 °F 86% 30.28 in 10.0 mi West 4.6 mph - N/A   Mostly Cloudy
10:58 AM 41.5 °F 37.8 °F 32.2 °F 69% 30.28 in 10.0 mi WNW 5.8 mph - N/A   Clear
11:58 AM 45.0 °F 41.2 °F 32.0 °F 60% 30.27 in 10.0 mi WSW 6.9 mph - N/A   Clear
12:58 PM 48.7 °F - 32.4 °F 53% 30.25 in 10.0 mi West 11.5 mph - N/A   Clear
1:58 PM 53.1 °F - 27.9 °F 38% 30.21 in 10.0 mi NW 16.1 mph 19.6 mph N/A   Clear
2:58 PM 54.9 °F - 23.9 °F 30% 30.18 in 10.0 mi NW 10.4 mph 28.8 mph N/A   Overcast
3:19 PM 57.2 °F - 24.8 °F 29% 30.16 in 10.0 mi NNW 18.4 mph 24.2 mph N/A   Mostly Cloudy
3:58 PM 57.7 °F - 22.3 °F 25% 30.15 in 10.0 mi WNW 16.1 mph 23.0 mph N/A   Scattered Clouds
4:58 PM 58.1 °F - 20.8 °F 24% 30.14 in 10.0 mi WNW 15.0 mph 23.0 mph N/A   Partly Cloudy
5:58 PM 58.5 °F - 21.2 °F 24% 30.13 in 10.0 mi WNW 13.8 mph 17.3 mph N/A   Clear
6:58 PM 56.3 °F - 22.1 °F 27% 30.13 in 10.0 mi NW 9.2 mph - N/A   Clear
7:58 PM 52.3 °F - 22.8 °F 32% 30.14 in 10.0 mi West 2.3 mph - N/A   Clear
8:58 PM 45.1 °F 42.0 °F 23.9 °F 43% 30.14 in 10.0 mi SSW 5.8 mph - N/A   Clear
9:58 PM 42.8 °F 38.6 °F 24.4 °F 48% 30.15 in 10.0 mi SW 6.9 mph - N/A   Clear
10:58 PM 39.4 °F 34.5 °F 24.1 °F 54% 30.15 in 10.0 mi SW 6.9 mph - N/A   Clear
11:58 PM 38.7 °F 34.3 °F 24.1 °F 56% 30.13 in 10.0 mi SW 5.8 mph - N/A   Clear